{"data":{"norad_id":68372,"intl_designator":"2026-061N","name":"RASSVET-3 13","alt_names":[],"object_type":"PAYLOAD","status":"ACTIVE","operator":null,"country":"CIS","launch_date":"2026-03-23","launch_site_code":"PLMSC","launch_vehicle":null,"mission":null,"orbit_class":"UNKNOWN","rcs_meters":null,"size_class":null,"mass_kg":null,"dimensions":null,"purposes":[],"wikipedia_slug":null,"has_3d_model":false,"image_url":null,"decayed_at":null,"tle_current":{"epoch":"2026-09-19T07:52:32.689632Z","epoch_age_seconds":173467,"freshness":"STALE","line1":"1 68372U 26061N   26262.32815613  .00002627  00000+0  12455-3 0  9994","line2":"2 68372  82.2929 278.3112 0001560 106.0439 254.0967 15.18898764 27727","mean_motion":15.18898764,"eccentricity":0.000156,"inclination_deg":82.2929,"raan_deg":278.3112,"arg_perigee_deg":106.0439,"mean_anomaly_deg":254.0967,"bstar":0.00012455,"rev_number":2772,"period_min":94.805528461145,"perigee_km":508.0931520635,"apogee_km":510.24199108983,"semimajor_km":6887.3045715767,"source":"CELESTRAK","updated_at":"2026-09-20T09:00:24.165112Z"}}}